This is the latest recevied weather packets stored in our database for station/object DL9GRB-13. If no packets are shown the sender has not sent any weather packets the latest 10 day(s).
| Time | Temp. | Humidity | Pressure | Rain* | Wind** | Luminosity | Snow |
|---|---|---|---|---|---|---|---|
| 1777735147 | 27.78° C | 27% | 1013.6 hPa | 0 mm | - | 332 W/m² | - |
| 1777734967 | 27.78° C | 27% | 1013.6 hPa | 0 mm | - | 341 W/m² | - |
| 1777734787 | 27.78° C | 27% | 1013.7 hPa | 0 mm | - | 350 W/m² | - |
| 1777734607 | 27.78° C | 26% | 1013.7 hPa | 0 mm | - | 355 W/m² | - |
| 1777734427 | 27.78° C | 28% | 1013.6 hPa | 0 mm | - | 362 W/m² | - |
| 1777734247 | 27.78° C | 26% | 1013.8 hPa | 0 mm | - | 370 W/m² | - |
| 1777734067 | 27.78° C | 26% | 1013.7 hPa | 0 mm | - | 379 W/m² | - |
| 1777733887 | 27.78° C | 27% | 1013.8 hPa | 0 mm | - | 388 W/m² | - |
| 1777733707 | 28.33° C | 26% | 1013.7 hPa | 0 mm | - | 393 W/m² | - |
| 1777733527 | 28.33° C | 27% | 1014 hPa | 0 mm | - | 403 W/m² | - |
| 1777733347 | 28.33° C | 27% | 1014 hPa | 0 mm | - | 414 W/m² | - |
| 1777733167 | 27.78° C | 27% | 1014 hPa | 0 mm | - | 424 W/m² | - |
| 1777732987 | 27.78° C | 27% | 1014.2 hPa | 0 mm | - | 429 W/m² | - |
| 1777732807 | 27.78° C | 27% | 1014.1 hPa | 0 mm | - | 441 W/m² | - |
| 1777732627 | 28.33° C | 26% | 1014.1 hPa | 0 mm | - | 449 W/m² | - |
| 1777732447 | 28.33° C | 26% | 1014.3 hPa | 0 mm | - | 465 W/m² | - |
| 1777732267 | 28.33° C | 26% | 1014.3 hPa | 0 mm | - | 474 W/m² | - |
| 1777732087 | 28.33° C | 26% | 1014.3 hPa | 0 mm | - | 482 W/m² | - |
| 1777731907 | 27.78° C | 26% | 1014.4 hPa | 0 mm | - | 498 W/m² | - |
| 1777731727 | 28.33° C | 26% | 1014.3 hPa | 0 mm | - | 506 W/m² | - |
| 1777731547 | 28.33° C | 26% | 1014.3 hPa | 0 mm | - | 516 W/m² | - |
| 1777731367 | 28.33° C | 26% | 1014.3 hPa | 0 mm | - | 526 W/m² | - |
| 1777731187 | 28.33° C | 26% | 1014.5 hPa | 0 mm | - | 532 W/m² | - |
| 1777731007 | 27.78° C | 28% | 1014.5 hPa | 0 mm | - | 542 W/m² | - |
| 1777730647 | 27.78° C | 26% | 1014.4 hPa | 0 mm | - | 558 W/m² | - |
* Rain latest hour (hover to see other rain measurements)
** Current wind speed in m/s (hover to see current wind gust speed)